Regional Weather Roundup
Issued by NWS Cleveland, OH

Home | Current Version | Previous Version | Text Only | Print | Product List | Glossary On
Versions: 1 2 3 4 5 6 7 8 9 10 11 12 13 14 15 16 17 18 19 20 21 22 23 24 25 26 27 28 29 30 31 32 33 34 35 36 37 38 39 40 41 42 43 44 45 46 47 48 49 50
000
ASUS41 KCLE 220512
RWRCLE
OHIO REGIONAL WEATHER ROUNDUP
NATIONAL WEATHER SERVICE WILMINGTON, OH
1200 AM EST THU FEB 22 2018

NOTE: "FAIR" INDICATES FEW OR NO CLOUDS BELOW 12,000 FEET WITH NO
SIGNIFICANT WEATHER AND/OR OBSTRUCTIONS TO VISIBILITY.

OHZ001>008-015>018-024>027-034-035-043-044-220600-
   NORTHWEST OHIO

CITY           SKY/WX    TMP DP  RH WIND       PRES   REMARKS
DEFIANCE       CLOUDY    35  32  88 E10       30.58F WCI  27
FINDLAY        CLOUDY    36  30  79 NE10      30.56F
TOLEDO EXPRESS FAIR      34  32  92 NE9       30.60F WCI  27
TOLEDO EXEC    FAIR      34  29  82 E8        30.62F WCI  27
LIMA           LGT RAIN  35  33  92 NE14      30.54F WCI  26
$$

OHZ009>014-019>023-028>033-038-089-220600-
   NORTHEAST OHIO

CITY           SKY/WX    TMP DP  RH WIND       PRES   REMARKS
CLE-HOPKINS    LGTSLEET  33  29  85 NE12      30.63R WCI  24
CLE-LAKEFRONT  CLOUDY    33  28  81 NE13      30.61R WCI  24
CUY CO. ARPT   NOT AVBL
LORAIN-ELYRIA  MIX PCPN  32  25  75 NE13      30.61R WCI  22
ASHTABULA      CLOUDY    33  30  88 NE7       30.59F WCI  27
AKRON-CANTON   LGT RAIN  34  30  85 N10       30.53F WCI  26
WOOSTER        LGT RAIN  33  31  92 NE10      30.56R WCI  25
MANSFIELD      MIX PCPN  32  31  96 N9        30.55R WCI  24
YOUNGSTOWN     CLOUDY    34  31  88 N6        30.55F WCI  29
$$

OHZ042-051>053-060>062-070>072-077>081-220600-
  SOUTHWEST OHIO

CITY           SKY/WX    TMP DP  RH WIND       PRES   REMARKS
CINC-COVINGTON LGT RAIN  43  43 100 NE13      30.43S
CINC-LUNKEN    LGT RAIN  44  42  93 NE9       30.45F
HAMILTON       LGT RAIN  42  30  62 NE10      30.48S
DAYTON         LGT RAIN  37  37 100 NE16      30.52S
WRIGHT-PAT AFB LGT RAIN  39  35  88 N9        30.52R
DAYTON GENERAL LGT RAIN  40  37  89 NE15      30.48R
WILMINGTON     LGT RAIN  39  39 100 E15       30.45F
$$

OHZ036-037-039>041-045>050-054>059-063>069-073>076-082>088-220600-
  CENTRAL AND SOUTHEAST OHIO

CITY           SKY/WX    TMP DP  RH WIND       PRES   REMARKS
COLUMBUS       LGT RAIN  39  35  86 NE10      30.49F
OSU AIRPORT    LGT RAIN  37  35  92 N12       30.51S
BOLTON FIELD   RAIN      38  35  89 NE7       30.51F
RICKENBACK AFB CLOUDY    38  36  91 NE9       30.50S
NEWARK         CLOUDY    39  33  79 NE7       30.50F
MARION         LGT RAIN  34  31  88 NE15      30.56R WCI  24
LANCASTER      CLOUDY    40  36  86 E8        30.49F
ZANESVILLE     CLOUDY    40  35  83 NE10      30.50S
NEW PHILLY     CLOUDY    37  34  89 N6        30.55S
$$




USA.gov is the U.S. government's official web portal to all federal, state and local government web resources and services.